Regional Weather Roundup
Issued by NWS

Home | Current Version | Previous Version | Graphics & Text | Print | Product List | Glossary On
Versions: 1 2 3 4 5 6 7 8 9 10 11 12 13 14 15 16 17 18 19 20 21 22 23 24 25 26 27 28
000
ASUS45 KCYS 151610
RWRWY

WYOMING REGIONAL WEATHER ROUNDUP
NATIONAL WEATHER SERVICE CHEYENNE WY
1000 AM MDT TUE AUG 15 2017

NOTE:  "FAIR" INDICATES FEW OR NO CLOUDS BELOW 12,000 FEET
WITH NO SIGNIFICANT WEATHER AND/OR OBSTRUCTIONS TO VISIBILITY.

WYZ001-151700-
YELLOWSTONE NATIONAL PARK

CITY           SKY/WX    TMP DP  RH WIND       PRES   REMARKS
LK YELLOWSTONE   N/A     50  43  77 CALM      30.14R
W YELLOWSTONE  NOT AVBL

$$
WYZ002>013-054>058-071-098>099-151700-
NORTHERN WYOMING

CITY           SKY/WX    TMP DP  RH WIND       PRES   REMARKS
JACKSON        FAIR      55  44  66 N3        30.08S
CODY           FAIR      57  49  74 SW12G18   30.00S
GREYBULL       PTSUNNY   62  56  80 CALM      29.93S
WORLAND        CLOUDY    59  56  89 SW6       29.95S
SHERIDAN       LGT RAIN  59  54  83 W9        29.94S
BUFFALO        LGT RAIN  57  51  80 NW13      29.98R
GILLETTE       LGT RAIN  62  57  83 SW10      29.93R
HULETT         FAIR      66  54  63 N3        29.92S
NEWCASTLE      PTSUNNY   64  55  72 NW6       29.91F

$$
WYZ014>020-022>026-101>103-151700-
CENTRAL WYOMING

CITY           SKY/WX    TMP DP  RH WIND       PRES   REMARKS
BIG PINEY      CLOUDY    52  48  86 S7        30.10R
PINEDALE       CLOUDY    52  46  82 W3        30.11R
DUBOIS         FAIR      59  36  41 N6        30.05F
LANDER           N/A    N/A N/A N/A MISG      30.00S
RIVERTON       CLOUDY    59  52  77 E5        30.00R
CASPER         FAIR      63  53  70 VRB7      29.97S
DOUGLAS        FAIR      65  56  72 VRB3      29.96R

$$
WYZ021-027>030-104>119-151700-
SOUTHERN WYOMING

CITY           SKY/WX    TMP DP  RH WIND       PRES   REMARKS
EVANSTON       PTSUNNY   56  50  80 VRB5      30.10R
KEMMERER         N/A     55  46  71 CALM      30.11R
FORT BRIDGER   FAIR      55  54  94 CALM      30.12S
ROCK SPRINGS   PTSUNNY   57  51  80 VRB6      30.07S
RAWLINS        FAIR      62  47  57 NW6       30.05F
SARATOGA       FAIR      61  50  67 SE9       30.08S
LARAMIE        FAIR      58  48  69 S6        30.07S
CHEYENNE       FAIR      70  50  49 E10       30.02S
TORRINGTON     FAIR      69  58  67 NE10      29.91F
PINE BLUFFS    FAIR      68  54  60 N6        29.99F

$$




USA.gov is the U.S. government's official web portal to all federal, state and local government web resources and services.